Regional Weather Roundup
Issued by NWS

Home | Current Version | Previous Version | Text Only | Print | Product List | Glossary On
Versions: 1 2 3 4 5 6 7 8 9 10 11 12 13 14 15 16 17 18 19 20 21 22 23 24 25 26 27 28 29 30 31 32 33 34 35 36 37 38 39 40 41 42 43 44 45 46 47 48 49 50
000
ASPQ40 PGUM 280612
RWRPQ
WEATHER ROUNDUP FOR THE MARIANAS AND MICRONESIA
NATIONAL WEATHER SERVICE TIYAN GU
400 PM CHST TUE FEB 28 2017

GUZ001>004-280700-
MARIANA ISLANDS-

CITY           SKY/WX    TMP DP  RH WIND       PRES   REMARKS
GUAM AIRPORT   MOSUNNY   84  73  70 E18       29.84S HX  91
ANDERSEN AFB   MOSUNNY   82  73  74 NE16      29.85S
ROTA AIRPORT   PTSUNNY   81  73  78 NE14      29.85S
TINIAN AP      PTSUNNY   81  73  78 NE14      29.84S
SAIPAN AP      SUNNY     81  73  78 NE15      29.85S

$$

PMZ161-280700-
REPUBLIC OF PALAU-

CITY           SKY/WX    TMP DP  RH WIND       PRES   REMARKS
KOROR AP       CLOUDY    86  79  79 E15G21    29.74F HX  99
KOROR WSO      NOT AVBL

$$

PMZ171>174-280700-
FEDERATED STATES OF MICRONESIA-

CITY           SKY/WX    TMP DP  RH WIND       PRES   REMARKS
YAP AIRPORT    PTSUNNY   86  77  74 NE12      29.74F HX  97
CHUUK AP       CLOUDY    79  72  78 NE9       29.73R
POHNPEI AP     NOT AVBL
POHNPEI WSO    LGT RAIN  79  77  94 NE7       29.76S
KOSRAE AP      NOT AVBL

$$

PMZ181-280700-
REPUBLIC OF THE MARSHALL ISLANDS-

CITY           SKY/WX    TMP DP  RH WIND       PRES   REMARKS
KWAJALEIN AP   SUNNY     84  72  65 NE20      29.75R
MAJURO AP      NOT AVBL
MAJURO WSO     SHOWER    79  77  94 E15       29.71S

$$




USA.gov is the U.S. government's official web portal to all federal, state and local government web resources and services.